This is the latest recevied weather packets stored in our database for station/object IK1YPD-13. If no packets are shown the sender has not sent any weather packets the latest 1 day(s).
| Time | Temp. | Humidity | Pressure | Rain* | Wind** | Luminosity | Snow |
|---|---|---|---|---|---|---|---|
| 1777747109 | 15.56° C | 57% | 1018 hPa | - | - | - | - |
| 1777746209 | 16.67° C | 55% | 1018 hPa | - | - | - | - |
| 1777745309 | 17.22° C | 53% | 1017 hPa | - | - | - | - |
| 1777744409 | 17.78° C | 49% | 1017 hPa | - | - | - | - |
| 1777743509 | 18.33° C | 45% | 1017 hPa | - | - | - | - |
| 1777742609 | 18.89° C | 43% | 1017 hPa | - | - | - | - |
| 1777741709 | 18.33° C | 46% | 1018 hPa | - | - | - | - |
| 1777740809 | 18.33° C | 43% | 1018 hPa | - | - | - | - |
| 1777739909 | 18.33° C | 46% | 1018 hPa | - | - | - | - |
| 1777739009 | 18.89° C | 44% | 1018 hPa | - | - | - | - |
| 1777738108 | 18.89° C | 44% | 1018 hPa | - | - | - | - |
| 1777737208 | 19.44° C | 45% | 1018 hPa | - | - | - | - |
| 1777736308 | 19.44° C | 45% | 1018 hPa | - | - | - | - |
| 1777735408 | 20° C | 45% | 1018 hPa | - | - | - | - |
| 1777734508 | 19.44° C | 47% | 1019 hPa | - | - | - | - |
| 1777733608 | 20° C | 45% | 1019 hPa | - | - | - | - |
| 1777732708 | 19.44° C | 44% | 1019 hPa | - | - | - | - |
| 1777731808 | 20° C | 43% | 1019 hPa | - | - | - | - |
| 1777730908 | 20° C | 37% | 1019 hPa | - | - | - | - |
| 1777730008 | 20° C | 37% | 1019 hPa | - | - | - | - |
| 1777729108 | 20° C | 33% | 1019 hPa | - | - | - | - |
| 1777728208 | 20° C | 32% | 1020 hPa | - | - | - | - |
| 1777727308 | 20° C | 31% | 1020 hPa | - | - | - | - |
| 1777726407 | 20° C | 33% | 1020 hPa | - | - | - | - |
| 1777725507 | 20° C | 32% | 1020 hPa | - | - | - | - |
* Rain since midnight (hover to see other rain measurements)
** Current wind speed in m/s (hover to see current wind gust speed)